User: anonymous
Location: Melbourne
(37.8170°S, 144.9670°E)
Time: 12:15:11
(UTC+10:00)
Language:

ERBS - Orbit

View from above orbital plane
View from above orbital plane
View from above satellite
View from above satellite

Ground track
Ground track

The orbit data is extracted from the following two-line orbital elements,

1 15354U 84108B   14245.20519386  .00006571  00000-0  23979-3 0  5672
2 15354 057.0135 169.5870 0015818 002.2369 357.8748 15.29264230641403
Epoch (UTC): 02 September 2014 04:55:28
Eccentricity: 0.0015818
inclination: 57.0135°
perigee height: 467 km
apogee height: 489 km
right ascension of ascending node: 169.5870°
argument of perigee: 2.2369°
revolutions per day: 15.29264230
mean anomaly at epoch: 357.8748°
orbit number at epoch: 64140

The dashed part of the orbit path shows where the satellite is in the earth's shadow,  

DLR